Location: Doughton Park
(36.4224°N, 81.1835°W)
Time: 23:35:17
(UTC-05:00)

Amateur Radio Satellites - All Passes

Search period start: 12 February 2016 23:05
Search period end: 13 February 2016 23:05
Location: Doughton Park, 36.4224°N, 81.1835°W

Satellite Date Start Highest point End Downlink Frequencies (MHz)
Time Altitude Azimuth
POLYITAN 1 12 Feb 23:08:33 23:12:07 26° 97° (E) 23:15:40 437.675
QB50P2 12 Feb 23:08:59 23:12:36 28° 97° (E) 23:16:13 145.880/145.840
VELOX 1 12 Feb 23:19:00 23:23:27 71° 259° (W) 23:27:55 145.980
Cosmos 2499 12 Feb 23:28:30 23:29:29 10° 285° (WNW) 23:30:29 435.465 / 435.565
UKube-1 12 Feb 23:31:00 23:35:14 54° 259° (W) 23:39:31 .
TISAT 1 12 Feb 23:32:50 23:35:21 16° 67° (ENE) 23:37:53 437.305
UNISAT 6 12 Feb 23:34:35 23:38:30 32° 288° (WNW) 23:42:27 437.425
SPROUT 12 Feb 23:34:42 23:38:48 46° 74° (ENE) 23:42:56 437.525
RS-15 12 Feb 23:35:42 23:40:35 13° 264° (W) 23:45:28 29.354- 29.394
AISAT 12 Feb 23:36:35 23:40:49 42° 261° (W) 23:45:03 437.250
POPSAT HIP 1 12 Feb 23:37:28 23:41:37 58° 101° (E) 23:45:44 437.405
DUCHIFAT 1 12 Feb 23:39:59 23:44:06 58° 101° (E) 23:48:13 145.980
NANOSAT C BR1 12 Feb 23:40:02 23:44:12 61° 101° (ESE) 23:48:20 145.865
CUBEBUG 1 12 Feb 23:46:41 23:50:51 40° 261° (W) 23:55:03 437.445
DX 1 12 Feb 23:49:33 23:53:20 28° 263° (W) 23:57:07 434.975-435.025
QB50P1 12 Feb 23:49:45 23:53:58 85° 105° (ESE) 23:58:09 145.935-145.965
50 SAT 12 Feb 23:55:46 23:58:11 17° 266° (W) 00:00:36 437.505
PHONESAT 2.4 13 Feb 00:07:04 00:10:21 89° 175° (S) 00:13:39 2401.200-2431.200
ESTCUBE 1 13 Feb 00:13:24 00:16:14 16° 267° (W) 00:19:05 437.505/2401.250
BEESAT 3 13 Feb 00:20:32 00:21:27 11° 45° (NE) 00:22:21 437.485
ANTELSAT 13 Feb 00:22:03 00:23:07 11° 295° (WNW) 00:24:12 437.575/2403.000
BUGSAT 1 13 Feb 00:27:27 00:31:28 73° 284° (WNW) 00:35:27 437.445
Oscar 19 13 Feb 00:33:01 00:34:36 11° 91° (E) 00:36:13 437.125/150
CUSAT 1 13 Feb 00:40:08 00:47:07 34° 88° (E) 00:54:05 437.405
POLYITAN 1 13 Feb 00:44:33 00:47:46 22° 291° (WNW) 00:51:00 437.675
QB50P2 13 Feb 00:45:05 00:48:15 21° 291° (WNW) 00:51:24 145.880/145.840
BEESAT 2 13 Feb 00:49:47 00:51:56 14° 48° (NE) 00:54:04 435.950
SWISSCUBE 13 Feb 01:06:18 01:10:36 35° 71° (ENE) 01:14:57 437.505
TISAT 1 13 Feb 01:06:45 01:10:42 38° 261° (W) 01:14:39 437.305
SPROUT 13 Feb 01:13:06 01:15:00 13° 268° (W) 01:16:54 437.525
POPSAT HIP 1 13 Feb 01:15:59 01:16:52 11° 295° (WNW) 01:17:45 437.405
Cosmos 2491 13 Feb 01:16:30 01:23:59 30° 72° (ENE) 01:31:26 435.465 / 435.565
DUCHIFAT 1 13 Feb 01:18:28 01:19:17 11° 296° (WNW) 01:20:08 145.980
NANOSAT C BR1 13 Feb 01:19:22 01:19:23 10° 296° (WNW) 01:19:25 145.865
Gurwin Techsat 1B 13 Feb 01:29:37 01:32:56 16° 93° (E) 01:36:13 435.225
DANDE 13 Feb 01:40:43 01:48:18 57° 92° (E) 01:56:33 436.750
ITUPSAT 1 13 Feb 01:44:26 01:49:11 81° 76° (ENE) 01:54:00 437.325
PHONESAT 2.4 13 Feb 01:44:41 01:47:48 39° 356° (N) 01:50:55 2401.200-2431.200
ITAMSAT 1 13 Feb 01:49:04 01:50:56 12° 91° (E) 01:52:48 435.822/435.867
BEESAT 13 Feb 01:50:38 01:55:23 85° 255° (WSW) 02:00:11 436.000
BEESAT 3 13 Feb 01:55:43 01:59:40 72° 242° (WSW) 02:03:34 437.485
YUBILEINY 13 Feb 02:02:38 02:09:35 27° 83° (E) 02:16:32 435.215
Oscar 19 13 Feb 02:09:17 02:14:23 70° 285° (WNW) 02:19:27 437.125/150
STARS 13 Feb 02:13:01 02:13:36 10° 63° (ENE) 02:14:12 437.465
JAS-2 13 Feb 02:15:50 02:21:20 88° 101° (E) 02:26:31 435.910
CUSAT 1 13 Feb 02:21:24 02:29:06 50° 283° (WNW) 02:36:48 437.405
BEESAT 2 13 Feb 02:26:15 02:30:07 50° 244° (WSW) 02:33:56 435.950
KKS-1 13 Feb 02:35:22 02:39:26 36° 72° (ENE) 02:43:32 437.445
SWISSCUBE 13 Feb 02:44:55 02:48:28 21° 265° (W) 02:52:03 437.505
MOZHAYETS 4 13 Feb 02:54:34 02:58:05 22° 68° (ENE) 03:01:36
Gurwin Techsat 1B 13 Feb 03:07:58 03:13:09 53° 287° (WNW) 03:18:18 435.225
AO-7 13 Feb 03:09:42 03:16:22 26° 96° (E) 03:22:58 29.400- 29.500
AIST 2 13 Feb 03:10:36 03:14:32 41° 56° (NE) 03:18:25 435.215
Cosmos 2491 13 Feb 03:12:42 03:21:06 53° 270° (W) 03:29:31 435.465 / 435.565
PHONESAT 2.4 13 Feb 03:22:09 03:25:22 52° 13° (NNE) 03:28:34 2401.200-2431.200
Cosmos 2504 13 Feb 03:22:17 03:27:32 18° 78° (ENE) 03:32:49 435.465 / 435.565
DANDE 13 Feb 03:24:42 03:31:37 32° 290° (WNW) 03:38:57 436.750
ITAMSAT 1 13 Feb 03:25:38 03:30:52 71° 286° (WNW) 03:36:04 435.822/435.867
SO-50 13 Feb 03:37:22 03:41:46 35° 113° (ESE) 03:46:14 436.795
STARS 13 Feb 03:45:00 03:49:23 67° 259° (W) 03:53:46 437.465
HORYU 2 13 Feb 03:56:53 03:59:55 18° 95° (E) 04:02:55 437.375
YUBILEINY 13 Feb 03:57:07 04:05:43 58° 281° (W) 04:14:25 435.215
KKS-1 13 Feb 04:13:06 04:16:06 18° 266° (W) 04:19:07 437.445
MOZHAYETS 4 13 Feb 04:31:01 04:35:03 31° 263° (W) 04:39:07
M-CUBED/EXP-1 PRIME 13 Feb 04:33:34 04:36:57 45° 105° (ESE) 04:40:34 437.505
AUBIESAT-1 13 Feb 04:40:09 04:43:35 45° 105° (ESE) 04:47:14 437.475
AIST 2 13 Feb 04:50:19 04:52:39 15° 251° (WSW) 04:54:59 435.215
PHONESAT 2.4 13 Feb 04:59:30 05:02:35 39° 208° (SSW) 05:05:39 2401.200-2431.200
AO-7 13 Feb 05:01:22 05:09:32 62° 292° (WNW) 05:17:38 29.400- 29.500
Cosmos 2504 13 Feb 05:11:03 05:19:39 85° 275° (W) 05:28:37 435.465 / 435.565
SO-50 13 Feb 05:18:07 05:22:18 27° 309° (NW) 05:26:31 436.795
CUBESAT XI-V 13 Feb 05:20:38 05:25:18 83° 79° (ENE) 05:30:03 437.345
CUTE-I 13 Feb 05:31:05 05:33:56 14° 92° (E) 05:36:46 437.470
HORYU 2 13 Feb 05:32:28 05:36:33 36° 289° (WNW) 05:40:38 437.375
Cubesat XI-IV 13 Feb 05:45:04 05:48:59 20° 94° (E) 05:52:53 437.490
STRAND 1 13 Feb 05:51:05 05:55:00 23° 66° (ENE) 05:58:56 437.568
O/OREOS (USA 219) 13 Feb 06:13:54 06:15:14 11° 98° (E) 06:16:34 437.305
AUBIESAT-1 13 Feb 06:17:11 06:17:51 10° 297° (WNW) 06:18:32 437.475
BRITE-PL 13 Feb 06:37:19 06:41:24 32° 96° (E) 06:45:15 437.365/2234.400
LilacSat-2 13 Feb 06:46:23 06:50:11 85° 102° (ESE) 06:53:58 437.200
PRISM 13 Feb 06:56:36 07:00:07 27° 70° (ENE) 07:03:40 437.425
AO-7 13 Feb 06:57:52 07:00:37 12° 312° (NW) 07:03:23 29.400- 29.500
CUTE-I 13 Feb 07:09:02 07:14:21 62° 286° (WNW) 07:19:37 437.470
Cosmos 2504 13 Feb 07:09:21 07:14:21 16° 296° (WNW) 07:19:28 435.465 / 435.565
HO-68 13 Feb 07:19:15 07:23:19 16° 91° (E) 07:27:22 435.675
Cubesat XI-IV 13 Feb 07:24:07 07:29:13 45° 289° (WNW) 07:34:18 437.490
GOMX 1 13 Feb 07:24:09 07:28:22 52° 99° (E) 07:32:24 467.674
STRAND 1 13 Feb 07:29:10 07:33:54 38° 262° (W) 07:38:40 437.568
GONETS M04 13 Feb 07:29:33 07:35:35 21° 81° (E) 07:41:37
O/OREOS (USA 219) 13 Feb 07:49:40 07:54:03 56° 293° (WNW) 07:58:29 437.305
JUGNU 13 Feb 07:50:45 07:53:53 15° 175° (S) 07:57:01 437.505
CUTE 1.7 + AOD 2 13 Feb 08:03:58 08:07:39 27° 96° (E) 08:11:19 437.475
SEEDS 13 Feb 08:04:10 08:07:21 20° 95° (E) 08:10:32 437.485
AAUSAT CUBESAT 2 13 Feb 08:09:23 08:11:25 13° 92° (E) 08:13:27 437.432
Cosmos 2499 13 Feb 08:12:27 08:17:42 18° 79° (ENE) 08:23:00 435.465 / 435.565
BRITE-PL 13 Feb 08:16:24 08:19:38 19° 293° (WNW) 08:22:42 437.365/2234.400
DOVE 4 13 Feb 08:24:33 08:28:41 61° 284° (WNW) 08:32:44 437.250
PRISM 13 Feb 08:32:16 08:35:24 21° 265° (W) 08:38:35 437.425
CUBEBUG 2 13 Feb 08:34:16 08:37:01 17° 94° (E) 08:39:50 437.445
AO-85 13 Feb 08:39:22 08:43:31 24° 109° (ESE) 08:47:49 145.980
CANX-2 13 Feb 08:49:15 08:53:33 73° 284° (WNW) 08:57:49 2200.000
CINEMA 3 13 Feb 08:51:22 08:55:33 84° 105° (ESE) 08:59:48 145.822/145.860
UNISAT 6 13 Feb 08:56:36 08:58:31 13° 66° (ENE) 09:00:26 437.425
HO-68 13 Feb 09:04:28 09:11:42 81° 287° (WNW) 09:18:53 435.675
GOMX 1 13 Feb 09:04:30 09:05:56 11° 296° (WNW) 09:07:20 467.674
ZACube-1 13 Feb 09:12:09 09:15:33 23° 96° (E) 09:18:58 437.345
COMPASS 1 13 Feb 09:17:55 09:22:08 70° 283° (WNW) 09:26:20 437.405
FUNcube-1 13 Feb 09:19:04 09:22:38 26° 96° (E) 09:26:16 145.935
GONETS M04 13 Feb 09:22:49 09:31:27 71° 279° (W) 09:40:11
AIST 1 13 Feb 09:26:30 09:29:01 15° 86° (E) 09:31:32
PCSat 13 Feb 09:26:30 09:31:12 31° 108° (ESE) 09:35:56 145.827
RS-15 13 Feb 09:29:41 09:37:37 23° 101° (E) 09:45:46 29.354- 29.394
SRMSAT 13 Feb 09:34:10 09:37:01 14° 173° (S) 09:39:53 437.500
JUGNU 13 Feb 09:39:00 09:42:06 15° 185° (S) 09:45:12 437.505
ANTELSAT 13 Feb 09:39:11 09:43:10 39° 73° (ENE) 09:47:10 437.575/2403.000
SEEDS 13 Feb 09:39:23 09:43:03 29° 289° (WNW) 09:46:43 437.485
CUTE 1.7 + AOD 2 13 Feb 09:40:02 09:43:20 22° 291° (WNW) 09:46:38 437.475
AAUSAT CUBESAT 2 13 Feb 09:43:07 09:47:06 42° 286° (WNW) 09:51:05 437.432
TIGRISAT 13 Feb 09:44:40 09:48:43 43° 73° (ENE) 09:52:45 435.000
Oscar 11 13 Feb 09:45:49 09:50:10 76° 101° (E) 09:54:31 145.826/435.025
POLYITAN 1 13 Feb 09:59:55 10:02:24 15° 67° (ENE) 10:04:53 437.675
QB50P2 13 Feb 10:00:13 10:02:50 16° 67° (ENE) 10:05:26 145.880/145.840
Cosmos 2499 13 Feb 10:00:52 10:09:36 86° 274° (W) 10:18:34 435.465 / 435.565
UWE-3 13 Feb 10:02:17 10:06:28 60° 284° (WNW) 10:10:44 435.000/436.395/437.385
CUBEBUG 2 13 Feb 10:09:53 10:13:44 34° 287° (WNW) 10:17:38 437.445
AO-85 13 Feb 10:18:39 10:23:45 45° 305° (NW) 10:29:02 145.980
DELFI C3 13 Feb 10:26:57 10:30:58 63° 284° (WNW) 10:34:57 145.870
POPSAT HIP 1 13 Feb 10:27:41 10:31:25 31° 71° (ENE) 10:35:08 437.405
DUCHIFAT 1 13 Feb 10:29:39 10:33:21 30° 71° (ENE) 10:37:02 145.980
NANOSAT C BR1 13 Feb 10:29:54 10:33:39 32° 72° (ENE) 10:37:25 145.865
UNISAT 6 13 Feb 10:30:38 10:34:49 48° 261° (W) 10:38:58 437.425
ESTCUBE 1 13 Feb 10:33:19 10:33:47 10° 91° (E) 10:34:15 437.505/2401.250
HUMSAT D 13 Feb 10:33:32 10:37:41 57° 100° (E) 10:41:51 437.325/437.525
QB50P1 13 Feb 10:39:37 10:43:38 43° 74° (ENE) 10:47:39 145.935-145.965
ZACube-1 13 Feb 10:48:13 10:51:46 26° 289° (WNW) 10:55:22 437.345
HO-68 13 Feb 10:54:50 10:58:17 14° 305° (NW) 11:01:43 435.675
FUNcube-1 13 Feb 10:55:25 10:58:46 23° 290° (WNW) 11:02:10 145.935
AIST 1 13 Feb 11:02:08 11:06:14 38° 281° (W) 11:10:21
PCSat 13 Feb 11:09:41 11:14:31 32° 305° (NW) 11:19:22 145.827
VELOX 1 13 Feb 11:12:17 11:15:58 25° 96° (E) 11:19:36 145.980
BUGSAT 1 13 Feb 11:14:22 11:18:26 53° 75° (ENE) 11:22:30 437.445
ANTELSAT 13 Feb 11:17:36 11:20:03 15° 267° (W) 11:22:28 437.575/2403.000
UKube-1 13 Feb 11:21:00 11:24:46 28° 97° (E) 11:28:29 .
SRMSAT 13 Feb 11:22:09 11:25:23 15° 183° (S) 11:28:37 437.500
TIGRISAT 13 Feb 11:23:30 11:25:36 13° 267° (W) 11:27:41 435.000
CUSAT 1 13 Feb 11:23:56 11:25:12 11° 60° (ENE) 11:26:24 437.405
GONETS M04 13 Feb 11:27:23 11:29:58 11° 299° (WNW) 11:32:34
50 SAT 13 Feb 11:28:08 11:31:52 51° 100° (E) 11:35:34 437.505
AISAT 13 Feb 11:29:16 11:33:28 42° 99° (E) 11:37:36 437.250
POLYITAN 1 13 Feb 11:33:55 11:37:52 39° 261° (W) 11:41:50 437.675
QB50P2 13 Feb 11:34:24 11:38:19 37° 261° (W) 11:42:16 145.880/145.840
RS-15 13 Feb 11:37:25 11:48:31 81° 301° (WNW) 12:00:17 29.354- 29.394
CUBEBUG 1 13 Feb 11:37:43 11:41:52 42° 99° (E) 11:45:57 437.445
DX 1 13 Feb 11:39:34 11:43:51 57° 101° (E) 11:48:06 434.975-435.025
Oscar 19 13 Feb 11:47:04 11:49:50 15° 63° (ENE) 11:52:37 437.125/150
Cosmos 2499 13 Feb 11:58:46 12:03:59 17° 295° (WNW) 12:09:15 435.465 / 435.565
POPSAT HIP 1 13 Feb 12:04:16 12:07:14 18° 265° (W) 12:10:12 437.405
DUCHIFAT 1 13 Feb 12:06:05 12:09:04 19° 265° (W) 12:12:04 145.980
ESTCUBE 1 13 Feb 12:06:28 12:10:59 63° 285° (WNW) 12:15:27 437.505/2401.250
NANOSAT C BR1 13 Feb 12:06:34 12:09:27 18° 266° (W) 12:12:19 145.865
HUMSAT D 13 Feb 12:11:41 12:12:49 11° 295° (WNW) 12:13:57 437.325/437.525
SO-50 13 Feb 12:11:52 12:15:11 18° 46° (NE) 12:18:27 436.795
QB50P1 13 Feb 12:17:37 12:19:37 13° 267° (W) 12:21:37 145.935-145.965
YUBILEINY 13 Feb 12:19:52 12:20:22 10° 59° (ENE) 12:20:53 435.215
JAS-2 13 Feb 12:23:49 12:30:24 34° 68° (ENE) 12:36:26 435.910
DANDE 13 Feb 12:27:08 12:32:44 31° 69° (ENE) 12:37:05 436.750
Gurwin Techsat 1B 13 Feb 12:48:10 12:52:06 22° 66° (ENE) 12:56:04 435.225
VELOX 1 13 Feb 12:48:45 12:52:19 25° 291° (WNW) 12:55:53 145.980
TISAT 1 13 Feb 12:53:10 12:57:02 36° 98° (E) 13:00:52 437.305
BUGSAT 1 13 Feb 12:53:14 12:54:05 11° 268° (W) 12:54:57 437.445
UKube-1 13 Feb 12:57:21 13:00:38 21° 292° (WNW) 13:03:54 .
SPROUT 13 Feb 12:59:02 13:03:14 60° 285° (WNW) 13:07:25 437.525
CUSAT 1 13 Feb 13:03:25 13:08:27 57° 267° (W) 13:12:12 437.405
ITAMSAT 1 13 Feb 13:04:17 13:07:16 16° 63° (ENE) 13:10:15 435.822/435.867
AISAT 13 Feb 13:06:59 13:09:34 16° 294° (WNW) 13:12:09 437.250
SWISSCUBE 13 Feb 13:11:39 13:12:45 11° 91° (E) 13:13:49 437.505
SRMSAT 13 Feb 13:12:58 13:13:43 10° 193° (SSW) 13:14:28 437.500
CUBEBUG 1 13 Feb 13:15:17 13:17:46 15° 294° (WNW) 13:20:15 437.445
DX 1 13 Feb 13:18:02 13:19:30 12° 296° (WNW) 13:20:59 434.975-435.025
Oscar 19 13 Feb 13:23:28 13:28:35 63° 259° (WSW) 13:33:44 437.125/150
ITUPSAT 1 13 Feb 13:48:04 13:52:03 25° 96° (E) 13:56:00 437.325
SO-50 13 Feb 13:51:23 13:56:02 53° 244° (WSW) 14:00:30 436.795
BEESAT 13 Feb 13:53:42 13:57:53 29° 97° (E) 14:02:03 436.000
RS-15 13 Feb 13:54:06 14:03:05 26° 327° (NNW) 14:12:29 29.354- 29.394
AO-7 13 Feb 14:06:07 14:13:07 31° 60° (ENE) 14:20:05 29.400- 29.500
JAS-2 13 Feb 14:07:57 14:15:10 45° 261° (W) 14:21:50 435.910
YUBILEINY 13 Feb 14:10:17 14:19:05 64° 81° (E) 14:27:46 435.215
DANDE 13 Feb 14:10:21 14:15:28 28° 276° (W) 14:19:32 436.750
Cosmos 2491 13 Feb 14:14:32 14:22:17 38° 86° (E) 14:30:02 435.465 / 435.565
ISS 13 Feb 14:23:21 14:26:35 90° 157° (SSE) 14:29:50 145.825
Gurwin Techsat 1B 13 Feb 14:26:43 14:31:44 43° 261° (W) 14:36:47 435.225
TISAT 1 13 Feb 14:29:50 14:32:23 16° 293° (WNW) 14:34:57 437.305
ITAMSAT 1 13 Feb 14:41:05 14:46:11 60° 259° (WSW) 14:51:21 435.822/435.867
SWISSCUBE 13 Feb 14:46:10 14:50:56 67° 285° (WNW) 14:55:42 437.505
HORYU 2 13 Feb 14:53:53 14:55:49 13° 65° (ENE) 14:57:46 437.375
Cosmos 2504 13 Feb 15:08:16 15:15:36 31° 72° (ENE) 15:22:27 435.465 / 435.565
M-CUBED/EXP-1 PRIME 13 Feb 15:18:55 15:22:15 37° 70° (ENE) 15:25:25 437.505
AUBIESAT-1 13 Feb 15:25:04 15:28:21 35° 69° (ENE) 15:31:30 437.475
ITUPSAT 1 13 Feb 15:25:40 15:29:50 30° 291° (WNW) 15:33:59 437.325
BEESAT 13 Feb 15:31:37 15:35:32 25° 292° (WNW) 15:39:26 436.000
STARS 13 Feb 15:37:26 15:41:06 26° 97° (E) 15:44:44 437.465
BEESAT 3 13 Feb 15:44:35 15:48:11 34° 114° (ESE) 15:51:49 437.485
AO-7 13 Feb 15:57:12 16:05:23 57° 257° (WSW) 16:13:37 29.400- 29.500
ISS 13 Feb 16:01:43 16:03:26 13° 335° (NNW) 16:05:08 145.825
KKS-1 13 Feb 16:04:48 16:09:14 77° 285° (WNW) 16:13:39 437.445
YUBILEINY 13 Feb 16:08:28 16:15:04 24° 278° (W) 16:21:40 435.215
Cosmos 2491 13 Feb 16:10:50 16:18:56 42° 284° (WNW) 16:27:05 435.465 / 435.565
RS-15 13 Feb 16:15:44 16:21:53 15° 3° (N) 16:28:09 29.354- 29.394
BEESAT 2 13 Feb 16:15:56 16:19:48 50° 116° (ESE) 16:23:42 435.950
O/OREOS (USA 219) 13 Feb 16:23:58 16:26:56 17° 59° (ENE) 16:29:53 437.305
HORYU 2 13 Feb 16:27:36 16:31:54 53° 259° (W) 16:36:14 437.375
MOZHAYETS 4 13 Feb 16:27:48 16:32:27 74° 102° (ESE) 16:37:05
CUTE-I 13 Feb 16:50:16 16:53:59 20° 65° (ENE) 16:57:44 437.470
M-CUBED/EXP-1 PRIME 13 Feb 16:56:32 16:56:59 10° 261° (W) 16:57:25 437.505
Cosmos 2504 13 Feb 17:01:12 17:09:12 49° 271° (W) 17:16:39 435.465 / 435.565
AUBIESAT-1 13 Feb 17:02:13 17:03:01 11° 261° (W) 17:03:48 437.475
Cubesat XI-IV 13 Feb 17:04:33 17:08:56 27° 67° (ENE) 17:13:20 437.490
AIST 2 13 Feb 17:07:07 17:09:43 16° 109° (ESE) 17:12:19 435.215
STARS 13 Feb 17:13:50 17:17:21 24° 291° (WNW) 17:20:51 437.465
AO-85 13 Feb 17:14:39 17:17:01 13° 41° (NE) 17:19:19 145.980
CUBESAT XI-V 13 Feb 17:20:25 17:24:17 25° 95° (E) 17:28:06 437.345
BEESAT 3 13 Feb 17:23:09 17:26:01 19° 310° (NW) 17:28:54 437.485
LilacSat-2 13 Feb 17:26:19 17:29:34 27° 72° (ENE) 17:32:49 437.200
BRITE-PL 13 Feb 17:44:12 17:49:18 36° 71° (ENE) 17:54:15 437.365/2234.400
BEESAT 2 13 Feb 17:55:43 17:57:58 14° 312° (NW) 18:00:14 435.950
O/OREOS (USA 219) 13 Feb 18:02:10 18:06:33 44° 254° (WSW) 18:10:55 437.305
MOZHAYETS 4 13 Feb 18:08:16 18:08:58 10° 297° (WNW) 18:09:41
PCSat 13 Feb 18:17:18 18:20:49 17° 48° (NE) 18:24:17 145.827
CUTE-I 13 Feb 18:28:31 18:33:38 48° 260° (W) 18:38:48 437.470
GOMX 1 13 Feb 18:28:36 18:33:44 48° 74° (ENE) 18:38:37 467.674
RS-15 13 Feb 18:29:58 18:40:16 31° 38° (NE) 18:50:39 29.354- 29.394
AIST 2 13 Feb 18:43:58 18:47:53 39° 304° (NW) 18:51:49 435.215
Cubesat XI-IV 13 Feb 18:44:01 18:48:49 34° 262° (W) 18:53:39 437.490
AO-85 13 Feb 18:53:17 18:58:23 88° 55° (NE) 19:02:59 145.980
CUTE 1.7 + AOD 2 13 Feb 18:55:29 18:57:51 15° 67° (ENE) 19:00:13 437.475
SEEDS 13 Feb 18:55:54 18:56:49 11° 65° (ENE) 18:57:45 437.485
CUBESAT XI-V 13 Feb 18:57:36 19:01:36 28° 290° (WNW) 19:05:34 437.345
LilacSat-2 13 Feb 19:01:26 19:03:54 16° 266° (W) 19:06:21 437.200
BRITE-PL 13 Feb 19:22:53 19:27:43 28° 265° (W) 19:32:27 437.365/2234.400
DOVE 4 13 Feb 19:26:29 19:31:33 86° 258° (WSW) 19:36:22 437.250
HO-68 13 Feb 19:29:47 19:36:47 59° 70° (ENE) 19:43:50 435.675
CUBEBUG 2 13 Feb 19:32:13 19:33:11 11° 65° (ENE) 19:34:10 437.445
GONETS M04 13 Feb 19:36:12 19:44:47 53° 78° (ENE) 19:53:20
CANX-2 13 Feb 19:39:18 19:43:24 55° 75° (ENE) 19:47:33 2200.000
STRAND 1 13 Feb 19:41:43 19:46:55 88° 107° (ESE) 19:52:04 437.568
CINEMA 3 13 Feb 19:50:14 19:54:42 56° 75° (ENE) 19:59:01 145.822/145.860
Cosmos 2499 13 Feb 19:57:03 20:03:59 29° 71° (ENE) 20:10:27 435.465 / 435.565
PCSat 13 Feb 19:59:19 20:04:43 69° 246° (WSW) 20:10:05 145.827
COMPASS 1 13 Feb 20:06:00 20:10:02 53° 75° (ENE) 20:14:07 437.405
ZACube-1 13 Feb 20:07:09 20:09:08 13° 67° (ENE) 20:11:08 437.345
GOMX 1 13 Feb 20:08:14 20:11:55 19° 266° (W) 20:15:31 467.674
FUNcube-1 13 Feb 20:13:31 20:15:53 15° 67° (ENE) 20:18:16 145.935
PRISM 13 Feb 20:15:19 20:19:28 63° 102° (ESE) 20:23:33 437.425
SEEDS 13 Feb 20:27:54 20:32:00 57° 260° (W) 20:36:09 437.485
CUTE 1.7 + AOD 2 13 Feb 20:29:22 20:33:19 40° 262° (W) 20:37:19 437.475
AAUSAT CUBESAT 2 13 Feb 20:30:24 20:34:31 87° 80° (E) 20:38:42 437.432
Oscar 11 13 Feb 20:38:01 20:42:02 40° 73° (ENE) 20:46:05 145.826/435.025
RS-15 13 Feb 20:42:07 20:54:24 88° 242° (WSW) 21:06:45 29.354- 29.394
ISS 13 Feb 20:53:15 20:56:15 34° 35° (NE) 20:59:14 145.825
UWE-3 13 Feb 20:56:36 21:00:50 78° 78° (ENE) 21:05:01 435.000/436.395/437.385
CUBEBUG 2 13 Feb 21:05:06 21:09:20 57° 260° (W) 21:13:29 437.445
DELFI C3 13 Feb 21:10:30 21:14:21 49° 74° (ENE) 21:18:12 145.870
AIST 1 13 Feb 21:11:41 21:15:43 37° 79° (E) 21:19:42
CANX-2 13 Feb 21:19:20 21:19:35 10° 269° (W) 21:19:50 2200.000
HO-68 13 Feb 21:19:23 21:24:50 23° 266° (W) 21:30:20 435.675
HUMSAT D 13 Feb 21:22:53 21:26:20 27° 71° (ENE) 21:29:47 437.325/437.525
STRAND 1 13 Feb 21:24:32 21:25:17 10° 299° (WNW) 21:26:01 437.568
CINEMA 3 13 Feb 21:30:38 21:32:05 11° 268° (W) 21:33:31 145.822/145.860
GONETS M04 13 Feb 21:33:48 21:41:05 30° 276° (W) 21:48:25
PHONESAT 2.4 13 Feb 21:38:19 21:38:40 10° 142° (SE) 21:39:02 2401.200-2431.200
TIGRISAT 13 Feb 21:40:53 21:42:01 11° 92° (E) 21:43:09 435.000
ZACube-1 13 Feb 21:41:03 21:45:03 44° 261° (W) 21:49:02 437.345
COMPASS 1 13 Feb 21:45:28 21:45:55 10° 269° (W) 21:46:22 437.405
FUNcube-1 13 Feb 21:47:55 21:51:49 38° 262° (W) 21:55:42 145.935
Cosmos 2499 13 Feb 21:49:36 21:57:24 50° 271° (W) 22:04:35 435.465 / 435.565
50 SAT 13 Feb 22:06:54 22:09:22 17° 69° (ENE) 22:11:50 437.505
VELOX 1 13 Feb 22:07:52 22:10:53 18° 67° (ENE) 22:13:53 145.980
UKube-1 13 Feb 22:13:50 22:16:51 19° 67° (ENE) 22:19:51 .
Oscar 11 13 Feb 22:15:56 22:18:19 14° 267° (W) 22:20:43 145.826/435.025
AISAT 13 Feb 22:24:25 22:28:14 28° 70° (ENE) 22:32:03 437.250
UNISAT 6 13 Feb 22:24:33 22:28:40 38° 99° (E) 22:32:51 437.425
ISS 13 Feb 22:30:07 22:32:31 19° 230° (SW) 22:34:56 145.825
CUBEBUG 1 13 Feb 22:31:25 22:35:07 27° 70° (ENE) 22:38:50 437.445
DX 1 13 Feb 22:32:35 22:36:35 36° 71° (ENE) 22:40:36 434.975-435.025
AIST 1 13 Feb 22:50:35 22:52:55 14° 274° (W) 22:55:15
HUMSAT D 13 Feb 22:59:00 23:01:58 19° 265° (W) 23:04:56 437.325/437.525
